Year,Month,Day,Hour,Minute,Value (Times are PST for temperature in C)
2016,04,01,00,00,10.90
2016,04,01,00,01,10.90
2016,04,01,00,02,10.80
2016,04,01,00,03,10.80
2016,04,01,00,04,10.80
2016,04,01,00,05,10.80
2016,04,01,00,06,10.80
2016,04,01,00,07,10.70
2016,04,01,00,08,10.70
2016,04,01,00,09,10.70
2016,04,01,00,10,10.70
2016,04,01,00,11,10.70
2016,04,01,00,12,10.70
2016,04,01,00,13,10.70
2016,04,01,00,14,10.70
2016,04,01,00,15,10.70
2016,04,01,00,16,10.70
2016,04,01,00,17,10.70
2016,04,01,00,18,10.70
2016,04,01,00,19,10.70
2016,04,01,00,20,10.60
2016,04,01,00,21,10.60
2016,04,01,00,22,10.60
2016,04,01,00,23,10.60
2016,04,01,00,24,10.60
2016,04,01,00,25,10.60
2016,04,01,00,26,10.60
2016,04,01,00,27,10.60
2016,04,01,00,28,10.60
2016,04,01,00,29,10.60
2016,04,01,00,30,10.60
2016,04,01,00,31,10.60
2016,04,01,00,32,10.60
2016,04,01,00,33,10.60
2016,04,01,00,34,10.60
2016,04,01,00,35,10.60
2016,04,01,00,36,10.60
2016,04,01,00,37,10.60
2016,04,01,00,38,10.60
2016,04,01,00,39,10.60
2016,04,01,00,40,10.60
2016,04,01,00,41,10.60
2016,04,01,00,42,10.50
2016,04,01,00,43,10.40
2016,04,01,00,44,10.40
2016,04,01,00,45,10.40
2016,04,01,00,46,10.40
2016,04,01,00,47,10.30
2016,04,01,00,48,10.30
2016,04,01,00,49,10.30
2016,04,01,00,50,10.20
2016,04,01,00,51,10.20
2016,04,01,00,52,10.20
2016,04,01,00,53,10.20
2016,04,01,00,54,10.10
2016,04,01,00,55,10.10
2016,04,01,00,56,10.10
2016,04,01,00,57,10.10
2016,04,01,00,58,10.10
2016,04,01,00,59,10.10
2016,04,01,01,00,10.00
2016,04,01,01,01,9.90
2016,04,01,01,02,9.90
2016,04,01,01,03,9.90
2016,04,01,01,04,9.90
2016,04,01,01,05,9.90
2016,04,01,01,06,9.90
2016,04,01,01,07,9.80
2016,04,01,01,08,9.80
2016,04,01,01,09,9.80
2016,04,01,01,10,9.70
2016,04,01,01,11,9.70
2016,04,01,01,12,9.70
2016,04,01,01,13,9.70
2016,04,01,01,14,9.70
2016,04,01,01,15,9.70
2016,04,01,01,16,9.70
2016,04,01,01,17,9.70
2016,04,01,01,18,9.70
2016,04,01,01,19,9.70
2016,04,01,01,20,9.60
2016,04,01,01,21,9.60
2016,04,01,01,22,9.60
2016,04,01,01,23,9.60
2016,04,01,01,24,9.60
2016,04,01,01,25,9.50
2016,04,01,01,26,9.50
2016,04,01,01,27,9.50
2016,04,01,01,28,9.50
2016,04,01,01,29,9.50
2016,04,01,01,30,9.50
2016,04,01,01,31,9.50
2016,04,01,01,32,9.50
2016,04,01,01,33,9.50
2016,04,01,01,34,9.50
2016,04,01,01,35,9.40
2016,04,01,01,36,9.40
2016,04,01,01,37,9.40
2016,04,01,01,38,9.30
2016,04,01,01,39,9.30
2016,04,01,01,40,9.30
2016,04,01,01,41,9.30
2016,04,01,01,42,9.20
2016,04,01,01,43,9.20
2016,04,01,01,44,9.20
2016,04,01,01,45,9.20
2016,04,01,01,46,9.20
2016,04,01,01,47,9.20
2016,04,01,01,48,9.20
2016,04,01,01,49,9.20
2016,04,01,01,50,9.20
2016,04,01,01,51,9.10
2016,04,01,01,52,9.10
2016,04,01,01,53,9.10
2016,04,01,01,54,9.10
2016,04,01,01,55,9.10
2016,04,01,01,56,9.10
2016,04,01,01,57,9.10
2016,04,01,01,58,9.10
2016,04,01,01,59,9.00
2016,04,01,02,00,9.00
2016,04,01,02,01,9.00
2016,04,01,02,02,9.00
2016,04,01,02,03,9.00
2016,04,01,02,04,9.00
2016,04,01,02,05,9.00
2016,04,01,02,06,9.00
2016,04,01,02,07,8.90
2016,04,01,02,08,8.90
2016,04,01,02,09,8.90
2016,04,01,02,10,8.90
2016,04,01,02,11,8.90
2016,04,01,02,12,8.80
2016,04,01,02,13,8.80
2016,04,01,02,14,8.80
2016,04,01,02,15,8.80
2016,04,01,02,16,8.80
2016,04,01,02,17,8.80
2016,04,01,02,18,8.80
2016,04,01,02,19,8.80
2016,04,01,02,20,8.80
2016,04,01,02,21,8.90
2016,04,01,02,22,8.90
2016,04,01,02,23,8.80
2016,04,01,02,24,8.80
2016,04,01,02,25,8.80
2016,04,01,02,26,8.80
2016,04,01,02,27,8.70
2016,04,01,02,28,8.70
2016,04,01,02,29,8.70
2016,04,01,02,30,8.70
2016,04,01,02,31,8.70
2016,04,01,02,32,8.70
2016,04,01,02,33,8.70
2016,04,01,02,34,8.70
2016,04,01,02,35,8.60
2016,04,01,02,36,8.60
2016,04,01,02,37,8.60
2016,04,01,02,38,8.60
2016,04,01,02,39,8.60
2016,04,01,02,40,8.70
2016,04,01,02,41,8.70
2016,04,01,02,42,8.70
2016,04,01,02,43,8.70
2016,04,01,02,44,8.60
2016,04,01,02,45,8.60
2016,04,01,02,46,8.70
2016,04,01,02,47,8.70
2016,04,01,02,48,8.70
2016,04,01,02,49,8.70
2016,04,01,02,50,8.60
2016,04,01,02,51,8.60
2016,04,01,02,52,8.60
2016,04,01,02,53,8.50
2016,04,01,02,54,8.50
2016,04,01,02,55,8.50
2016,04,01,02,56,8.50
2016,04,01,02,57,8.40
2016,04,01,02,58,8.40
2016,04,01,02,59,8.40
2016,04,01,03,00,8.40
2016,04,01,03,01,8.40
2016,04,01,03,02,8.40
2016,04,01,03,03,8.30
2016,04,01,03,04,8.30
2016,04,01,03,05,8.30
2016,04,01,03,06,8.30
2016,04,01,03,07,8.30
2016,04,01,03,08,8.30
2016,04,01,03,09,8.30
2016,04,01,03,10,8.30
2016,04,01,03,11,8.30
2016,04,01,03,12,8.30
2016,04,01,03,13,8.30
2016,04,01,03,14,8.30
2016,04,01,03,15,8.20
2016,04,01,03,16,8.20
2016,04,01,03,17,8.20
2016,04,01,03,18,8.20
2016,04,01,03,19,8.20
2016,04,01,03,20,8.20
2016,04,01,03,21,8.20
2016,04,01,03,22,8.20
2016,04,01,03,23,8.20
2016,04,01,03,24,8.20
2016,04,01,03,25,8.20
2016,04,01,03,26,8.20
2016,04,01,03,27,8.20
2016,04,01,03,28,8.20
2016,04,01,03,29,8.20
2016,04,01,03,30,8.30
2016,04,01,03,31,8.30
2016,04,01,03,32,8.30
2016,04,01,03,33,8.30
2016,04,01,03,34,8.30
2016,04,01,03,35,8.30
2016,04,01,03,36,8.20
2016,04,01,03,37,8.20
2016,04,01,03,38,8.20
2016,04,01,03,39,8.20
2016,04,01,03,40,8.20
2016,04,01,03,41,8.20
2016,04,01,03,42,8.20
2016,04,01,03,43,8.20
2016,04,01,03,44,8.10
2016,04,01,03,45,8.10
2016,04,01,03,46,8.00
2016,04,01,03,47,8.00
2016,04,01,03,48,8.00
2016,04,01,03,49,7.90
2016,04,01,03,50,7.90
2016,04,01,03,51,7.90
2016,04,01,03,52,7.90
2016,04,01,03,53,7.90
2016,04,01,03,54,7.90
2016,04,01,03,55,7.90
2016,04,01,03,56,7.90
2016,04,01,03,57,7.90
2016,04,01,03,58,7.90
2016,04,01,03,59,7.90
2016,04,01,04,00,7.80
2016,04,01,04,01,7.80
2016,04,01,04,02,7.80
2016,04,01,04,03,7.80
2016,04,01,04,04,7.80
2016,04,01,04,05,7.80
2016,04,01,04,06,7.80
2016,04,01,04,07,7.80
2016,04,01,04,08,7.80
2016,04,01,04,09,7.80
2016,04,01,04,10,7.80
2016,04,01,04,11,7.80
2016,04,01,04,12,7.70
2016,04,01,04,13,7.60
2016,04,01,04,14,7.50
2016,04,01,04,15,7.50
2016,04,01,04,16,7.50
2016,04,01,04,17,7.50
2016,04,01,04,18,7.50
2016,04,01,04,19,7.30
2016,04,01,04,20,7.20
2016,04,01,04,21,7.20
2016,04,01,04,22,7.20
2016,04,01,04,23,7.20
2016,04,01,04,24,7.20
2016,04,01,04,25,7.20
2016,04,01,04,26,7.20
2016,04,01,04,27,7.20
2016,04,01,04,28,7.20
2016,04,01,04,29,7.20
2016,04,01,04,30,7.20
2016,04,01,04,31,7.20
2016,04,01,04,32,7.20
2016,04,01,04,33,7.20
2016,04,01,04,34,7.20
2016,04,01,04,35,7.20
2016,04,01,04,36,7.20
2016,04,01,04,37,7.20
2016,04,01,04,38,7.20
2016,04,01,04,39,7.30
2016,04,01,04,40,7.30
2016,04,01,04,41,7.30
2016,04,01,04,42,7.20
2016,04,01,04,43,7.20
2016,04,01,04,44,7.20
2016,04,01,04,45,7.20
2016,04,01,04,46,7.30
2016,04,01,04,47,7.30
2016,04,01,04,48,7.30
2016,04,01,04,49,7.30
2016,04,01,04,50,7.30
2016,04,01,04,51,7.30
2016,04,01,04,52,7.30
2016,04,01,04,53,7.30
2016,04,01,04,54,7.30
2016,04,01,04,55,7.30
2016,04,01,04,56,7.30
2016,04,01,04,57,7.30
2016,04,01,04,58,7.30
2016,04,01,04,59,7.30
2016,04,01,05,00,7.30
2016,04,01,05,01,7.30
2016,04,01,05,02,7.30
2016,04,01,05,03,7.30
2016,04,01,05,04,7.20
2016,04,01,05,05,7.20
2016,04,01,05,06,7.20
2016,04,01,05,07,7.20
2016,04,01,05,08,7.20
2016,04,01,05,09,7.20
2016,04,01,05,10,7.20
2016,04,01,05,11,7.20
2016,04,01,05,12,7.20
2016,04,01,05,13,7.20
2016,04,01,05,14,7.30
2016,04,01,05,15,7.30
2016,04,01,05,16,7.30
2016,04,01,05,17,7.30
2016,04,01,05,18,7.30
2016,04,01,05,19,7.30
2016,04,01,05,20,7.30
2016,04,01,05,21,7.30
2016,04,01,05,22,7.30
2016,04,01,05,23,7.30
2016,04,01,05,24,7.30
2016,04,01,05,25,7.30
2016,04,01,05,26,7.30
2016,04,01,05,27,7.30
2016,04,01,05,28,7.30
2016,04,01,05,29,7.30
2016,04,01,05,30,7.30
2016,04,01,05,31,7.30
2016,04,01,05,32,7.30
2016,04,01,05,33,7.30
2016,04,01,05,34,7.30
2016,04,01,05,35,7.30
2016,04,01,05,36,7.30
2016,04,01,05,37,7.30
2016,04,01,05,38,7.20
2016,04,01,05,39,7.20
2016,04,01,05,40,7.20
2016,04,01,05,41,7.10
2016,04,01,05,42,7.10
2016,04,01,05,43,7.10
2016,04,01,05,44,7.00
2016,04,01,05,45,7.00
2016,04,01,05,46,7.00
2016,04,01,05,47,7.00
2016,04,01,05,48,7.00
2016,04,01,05,49,7.00
2016,04,01,05,50,7.00
2016,04,01,05,51,7.00
2016,04,01,05,52,7.00
2016,04,01,05,53,7.00
2016,04,01,05,54,7.00
2016,04,01,05,55,7.00
2016,04,01,05,56,7.00
2016,04,01,05,57,7.00
2016,04,01,05,58,7.00
2016,04,01,05,59,7.10
2016,04,01,06,00,7.10
2016,04,01,06,01,7.00
2016,04,01,06,02,7.00
2016,04,01,06,03,7.00
2016,04,01,06,04,7.00
2016,04,01,06,05,6.90
2016,04,01,06,06,6.90
2016,04,01,06,07,6.90
2016,04,01,06,08,6.80
2016,04,01,06,09,6.80
2016,04,01,06,10,6.80
2016,04,01,06,11,6.80
2016,04,01,06,12,6.80
2016,04,01,06,13,6.80
2016,04,01,06,14,6.80
2016,04,01,06,15,6.80
2016,04,01,06,16,6.80
2016,04,01,06,17,6.70
2016,04,01,06,18,6.70
2016,04,01,06,19,6.70
2016,04,01,06,20,6.70
2016,04,01,06,21,6.70
2016,04,01,06,22,6.70
2016,04,01,06,23,6.60
2016,04,01,06,24,6.60
2016,04,01,06,25,6.60
2016,04,01,06,26,6.60
2016,04,01,06,27,6.60
2016,04,01,06,28,6.50
2016,04,01,06,29,6.40
2016,04,01,06,30,6.40
2016,04,01,06,31,6.40
2016,04,01,06,32,6.40
2016,04,01,06,33,6.40
2016,04,01,06,34,6.40
2016,04,01,06,35,6.40
2016,04,01,06,36,6.40
2016,04,01,06,37,6.40
2016,04,01,06,38,6.40
2016,04,01,06,39,6.40
2016,04,01,06,40,6.40
2016,04,01,06,41,6.40
2016,04,01,06,42,6.40
2016,04,01,06,43,6.40
2016,04,01,06,44,6.50
2016,04,01,06,45,6.60
2016,04,01,06,46,6.60
2016,04,01,06,47,6.60
2016,04,01,06,48,6.60
2016,04,01,06,49,6.60
2016,04,01,06,50,6.60
2016,04,01,06,51,6.60
2016,04,01,06,52,6.60
2016,04,01,06,53,6.60
2016,04,01,06,54,6.60
2016,04,01,06,55,6.60
2016,04,01,06,56,6.60
2016,04,01,06,57,6.60
2016,04,01,06,58,6.60
2016,04,01,06,59,6.60
2016,04,01,07,00,6.60
2016,04,01,07,01,6.60
2016,04,01,07,02,6.60
2016,04,01,07,03,6.60
2016,04,01,07,04,6.60
2016,04,01,07,05,6.60
2016,04,01,07,06,6.70
2016,04,01,07,07,6.80
2016,04,01,07,08,6.80
2016,04,01,07,09,6.90
2016,04,01,07,10,6.90
2016,04,01,07,11,7.00
2016,04,01,07,12,7.10
2016,04,01,07,13,7.10
2016,04,01,07,14,7.20
2016,04,01,07,15,7.20
2016,04,01,07,16,7.20
2016,04,01,07,17,7.30
2016,04,01,07,18,7.30
2016,04,01,07,19,7.30
2016,04,01,07,20,7.30
2016,04,01,07,21,7.30
2016,04,01,07,22,7.30
2016,04,01,07,23,7.30
2016,04,01,07,24,7.30
2016,04,01,07,25,7.40
2016,04,01,07,26,7.40
2016,04,01,07,27,7.40
2016,04,01,07,28,7.50
2016,04,01,07,29,7.50
2016,04,01,07,30,7.60
2016,04,01,07,31,7.60
2016,04,01,07,32,7.70
2016,04,01,07,33,7.70
2016,04,01,07,34,7.80
2016,04,01,07,35,7.80
2016,04,01,07,36,7.80
2016,04,01,07,37,7.80
2016,04,01,07,38,7.80
2016,04,01,07,39,7.90
2016,04,01,07,40,7.90
2016,04,01,07,41,7.90
2016,04,01,07,42,7.90
2016,04,01,07,43,7.90
2016,04,01,07,44,8.00
2016,04,01,07,45,8.00
2016,04,01,07,46,8.00
2016,04,01,07,47,8.10
2016,04,01,07,48,8.10
2016,04,01,07,49,8.10
2016,04,01,07,50,8.10
2016,04,01,07,51,8.10
2016,04,01,07,52,8.10
2016,04,01,07,53,8.20
2016,04,01,07,54,8.20
2016,04,01,07,55,8.20
2016,04,01,07,56,8.20
2016,04,01,07,57,8.20
2016,04,01,07,58,8.30
2016,04,01,07,59,8.30
2016,04,01,08,00,8.30
2016,04,01,08,01,8.40
2016,04,01,08,02,8.40
2016,04,01,08,03,8.40
2016,04,01,08,04,8.50
2016,04,01,08,05,8.50
2016,04,01,08,06,8.50
2016,04,01,08,07,8.50
2016,04,01,08,08,8.60
2016,04,01,08,09,8.60
2016,04,01,08,10,8.60
2016,04,01,08,11,8.70
2016,04,01,08,12,8.70
2016,04,01,08,13,8.70
2016,04,01,08,14,8.70
2016,04,01,08,15,8.70
2016,04,01,08,16,8.70
2016,04,01,08,17,8.80
2016,04,01,08,18,8.80
2016,04,01,08,19,8.80
2016,04,01,08,20,8.80
2016,04,01,08,21,8.80
2016,04,01,08,22,8.80
2016,04,01,08,23,8.80
2016,04,01,08,24,8.80
2016,04,01,08,25,8.90
2016,04,01,08,26,8.90
2016,04,01,08,27,8.90
2016,04,01,08,28,8.90
2016,04,01,08,29,9.00
2016,04,01,08,30,9.00
2016,04,01,08,31,9.10
2016,04,01,08,32,9.10
2016,04,01,08,33,9.10
2016,04,01,08,34,9.20
2016,04,01,08,35,9.20
2016,04,01,08,36,9.20
2016,04,01,08,37,9.20
2016,04,01,08,38,9.20
2016,04,01,08,39,9.20
2016,04,01,08,40,9.20
2016,04,01,08,41,9.20
2016,04,01,08,42,9.30
2016,04,01,08,43,9.40
2016,04,01,08,44,9.40
2016,04,01,08,45,9.50
2016,04,01,08,46,9.60
2016,04,01,08,47,9.60
2016,04,01,08,48,9.70
2016,04,01,08,49,9.70
2016,04,01,08,50,9.80
2016,04,01,08,51,9.80
2016,04,01,08,52,9.90
2016,04,01,08,53,10.00
2016,04,01,08,54,10.10
2016,04,01,08,55,10.20
2016,04,01,08,56,10.30
2016,04,01,08,57,10.30
2016,04,01,08,58,10.40
2016,04,01,08,59,10.50
2016,04,01,09,00,10.60
2016,04,01,09,01,10.60
2016,04,01,09,02,10.60
2016,04,01,09,03,10.60
2016,04,01,09,04,10.60
2016,04,01,09,05,10.60
2016,04,01,09,06,10.70
2016,04,01,09,07,10.80
2016,04,01,09,08,10.90
2016,04,01,09,09,10.90
2016,04,01,09,10,10.90
2016,04,01,09,11,10.90
2016,04,01,09,12,10.90
2016,04,01,09,13,10.90
2016,04,01,09,14,10.90
2016,04,01,09,15,11.00
2016,04,01,09,16,11.10
2016,04,01,09,17,11.10
2016,04,01,09,18,11.10
2016,04,01,09,19,11.20
2016,04,01,09,20,11.10
2016,04,01,09,21,11.10
2016,04,01,09,22,11.10
2016,04,01,09,23,11.10
2016,04,01,09,24,11.10
2016,04,01,09,25,11.10
2016,04,01,09,26,11.10
2016,04,01,09,27,11.20
2016,04,01,09,28,11.20
2016,04,01,09,29,11.30
2016,04,01,09,30,11.40
2016,04,01,09,31,11.60
2016,04,01,09,32,11.60
2016,04,01,09,33,11.60
2016,04,01,09,34,11.60
2016,04,01,09,35,11.70
2016,04,01,09,36,11.70
2016,04,01,09,37,11.70
2016,04,01,09,38,11.70
2016,04,01,09,39,11.70
2016,04,01,09,40,11.80
2016,04,01,09,41,11.80
2016,04,01,09,42,12.00
2016,04,01,09,43,12.10
2016,04,01,09,44,12.20
2016,04,01,09,45,12.30
2016,04,01,09,46,12.30
2016,04,01,09,47,12.40
2016,04,01,09,48,12.40
2016,04,01,09,49,12.50
2016,04,01,09,50,12.40
2016,04,01,09,51,12.30
2016,04,01,09,52,12.20
2016,04,01,09,53,12.10
2016,04,01,09,54,12.10
2016,04,01,09,55,12.00
2016,04,01,09,56,12.00
2016,04,01,09,57,11.90
2016,04,01,09,58,11.80
2016,04,01,09,59,11.80
2016,04,01,10,00,11.80
2016,04,01,10,01,11.80
2016,04,01,10,02,11.70
2016,04,01,10,03,11.70
2016,04,01,10,04,11.80
2016,04,01,10,05,11.70
2016,04,01,10,06,11.60
2016,04,01,10,07,11.60
2016,04,01,10,08,11.50
2016,04,01,10,09,11.40
2016,04,01,10,10,11.40
2016,04,01,10,11,11.40
2016,04,01,10,12,11.40
2016,04,01,10,13,11.40
2016,04,01,10,14,11.40
2016,04,01,10,15,11.50
2016,04,01,10,16,11.60
2016,04,01,10,17,11.60
2016,04,01,10,18,11.60
2016,04,01,10,19,11.70
2016,04,01,10,20,11.70
2016,04,01,10,21,11.80
2016,04,01,10,22,11.80
2016,04,01,10,23,11.80
2016,04,01,10,24,11.70
2016,04,01,10,25,11.60
2016,04,01,10,26,11.60
2016,04,01,10,27,11.60
2016,04,01,10,28,11.60
2016,04,01,10,29,11.60
2016,04,01,10,30,11.70
2016,04,01,10,31,11.80
2016,04,01,10,32,11.80
2016,04,01,10,33,11.90
2016,04,01,10,34,11.90
2016,04,01,10,35,12.00
2016,04,01,10,36,11.90
2016,04,01,10,37,11.90
2016,04,01,10,38,11.90
2016,04,01,10,39,11.90
2016,04,01,10,40,12.00
2016,04,01,10,41,12.10
2016,04,01,10,42,12.20
2016,04,01,10,43,12.20
2016,04,01,10,44,12.20
2016,04,01,10,45,12.30
2016,04,01,10,46,12.30
2016,04,01,10,47,12.30
2016,04,01,10,48,12.40
2016,04,01,10,49,12.50
2016,04,01,10,50,12.50
2016,04,01,10,51,12.50
2016,04,01,10,52,12.60
2016,04,01,10,53,12.60
2016,04,01,10,54,12.80
2016,04,01,10,55,12.80
2016,04,01,10,56,12.80
2016,04,01,10,57,12.90
2016,04,01,10,58,12.90
2016,04,01,10,59,13.00
2016,04,01,11,00,13.00
2016,04,01,11,01,13.10
2016,04,01,11,02,13.10
2016,04,01,11,03,13.10
2016,04,01,11,04,13.10
2016,04,01,11,05,13.10
2016,04,01,11,06,13.10
2016,04,01,11,07,13.10
2016,04,01,11,08,13.10
2016,04,01,11,09,13.10
2016,04,01,11,10,13.10
2016,04,01,11,11,13.10
2016,04,01,11,12,13.20
2016,04,01,11,13,13.20
2016,04,01,11,14,13.30
2016,04,01,11,15,13.20
2016,04,01,11,16,13.20
2016,04,01,11,17,13.30
2016,04,01,11,18,13.30
2016,04,01,11,19,13.30
2016,04,01,11,20,13.30
2016,04,01,11,21,13.30
2016,04,01,11,22,13.30
2016,04,01,11,23,13.40
2016,04,01,11,24,13.50
2016,04,01,11,25,13.60
2016,04,01,11,26,13.70
2016,04,01,11,27,13.80
2016,04,01,11,28,13.90
2016,04,01,11,29,13.90
2016,04,01,11,30,13.90
2016,04,01,11,31,13.90
2016,04,01,11,32,13.90
2016,04,01,11,33,13.90
2016,04,01,11,34,14.00
2016,04,01,11,35,14.10
2016,04,01,11,36,14.00
2016,04,01,11,37,13.90
2016,04,01,11,38,13.90
2016,04,01,11,39,14.00
2016,04,01,11,40,14.20
2016,04,01,11,41,14.20
2016,04,01,11,42,14.20
2016,04,01,11,43,14.20
2016,04,01,11,44,14.20
2016,04,01,11,45,14.20
2016,04,01,11,46,14.20
2016,04,01,11,47,14.20
2016,04,01,11,48,14.30
2016,04,01,11,49,14.30
2016,04,01,11,50,14.30
2016,04,01,11,51,14.20
2016,04,01,11,52,14.10
2016,04,01,11,53,14.10
2016,04,01,11,54,14.00
2016,04,01,11,55,13.90
2016,04,01,11,56,13.90
2016,04,01,11,57,13.90
2016,04,01,11,58,14.00
2016,04,01,11,59,13.90
2016,04,01,12,00,13.90
2016,04,01,12,01,14.00
2016,04,01,12,02,14.00
2016,04,01,12,03,14.10
2016,04,01,12,04,14.20
2016,04,01,12,05,14.20
2016,04,01,12,06,14.20
2016,04,01,12,07,14.20
2016,04,01,12,08,14.10
2016,04,01,12,09,14.10
2016,04,01,12,10,14.20
2016,04,01,12,11,14.20
2016,04,01,12,12,14.20
2016,04,01,12,13,14.20
2016,04,01,12,14,14.20
2016,04,01,12,15,14.20
2016,04,01,12,16,14.20
2016,04,01,12,17,14.20
2016,04,01,12,18,14.20
2016,04,01,12,19,14.10
2016,04,01,12,20,14.00
2016,04,01,12,21,14.00
2016,04,01,12,22,14.00
2016,04,01,12,23,14.00
2016,04,01,12,24,14.00
2016,04,01,12,25,14.00
2016,04,01,12,26,13.90
2016,04,01,12,27,13.90
2016,04,01,12,28,14.00
2016,04,01,12,29,14.10
2016,04,01,12,30,14.10
2016,04,01,12,31,14.20
2016,04,01,12,32,14.10
2016,04,01,12,33,14.10
2016,04,01,12,34,14.10
2016,04,01,12,35,14.10
2016,04,01,12,36,14.20
2016,04,01,12,37,14.20
2016,04,01,12,38,14.20
2016,04,01,12,39,14.40
2016,04,01,12,40,14.50
2016,04,01,12,41,14.60
2016,04,01,12,42,14.70
2016,04,01,12,43,14.70
2016,04,01,12,44,14.80
2016,04,01,12,45,14.80
2016,04,01,12,46,15.00
2016,04,01,12,47,15.00
2016,04,01,12,48,15.00
2016,04,01,12,49,15.00
2016,04,01,12,50,15.00
2016,04,01,12,51,15.10
2016,04,01,12,52,15.00
2016,04,01,12,53,14.90
2016,04,01,12,54,14.90
2016,04,01,12,55,14.90
2016,04,01,12,56,14.90
2016,04,01,12,57,14.90
2016,04,01,12,58,14.90
2016,04,01,12,59,14.90
2016,04,01,13,00,15.00
2016,04,01,13,01,15.10
2016,04,01,13,02,15.10
2016,04,01,13,03,15.20
2016,04,01,13,04,15.30
2016,04,01,13,05,15.30
2016,04,01,13,06,15.30
2016,04,01,13,07,15.30
2016,04,01,13,08,15.30
2016,04,01,13,09,15.30
2016,04,01,13,10,15.40
2016,04,01,13,11,15.40
2016,04,01,13,12,15.40
2016,04,01,13,13,15.40
2016,04,01,13,14,15.50
2016,04,01,13,15,15.50
2016,04,01,13,16,15.60
2016,04,01,13,17,15.60
2016,04,01,13,18,15.60
2016,04,01,13,19,15.70
2016,04,01,13,20,15.80
2016,04,01,13,21,15.80
2016,04,01,13,22,15.80
2016,04,01,13,23,15.80
2016,04,01,13,24,15.80
2016,04,01,13,25,15.80
2016,04,01,13,26,15.70
2016,04,01,13,27,15.60
2016,04,01,13,28,15.50
2016,04,01,13,29,15.40
2016,04,01,13,30,15.20
2016,04,01,13,31,15.10
2016,04,01,13,32,15.10
2016,04,01,13,33,15.10
2016,04,01,13,34,15.10
2016,04,01,13,35,15.00
2016,04,01,13,36,15.10
2016,04,01,13,37,15.20
2016,04,01,13,38,15.30
2016,04,01,13,39,15.30
2016,04,01,13,40,15.40
2016,04,01,13,41,15.50
2016,04,01,13,42,15.60
2016,04,01,13,43,15.50
2016,04,01,13,44,15.50
2016,04,01,13,45,15.50
2016,04,01,13,46,15.50
2016,04,01,13,47,15.60
2016,04,01,13,48,15.60
2016,04,01,13,49,15.40
2016,04,01,13,50,15.30
2016,04,01,13,51,15.20
2016,04,01,13,52,15.10
2016,04,01,13,53,14.90
2016,04,01,13,54,14.70
2016,04,01,13,55,14.50
2016,04,01,13,56,14.50
2016,04,01,13,57,14.60
2016,04,01,13,58,14.70
2016,04,01,13,59,14.60
2016,04,01,14,00,14.50
2016,04,01,14,01,14.40
2016,04,01,14,02,14.50
2016,04,01,14,03,14.50
2016,04,01,14,04,14.50
2016,04,01,14,05,14.40
2016,04,01,14,06,14.50
2016,04,01,14,07,14.60
2016,04,01,14,08,14.80
2016,04,01,14,09,14.80
2016,04,01,14,10,14.80
2016,04,01,14,11,14.90
2016,04,01,14,12,15.00
2016,04,01,14,13,15.00
2016,04,01,14,14,15.10
2016,04,01,14,15,15.10
2016,04,01,14,16,14.90
2016,04,01,14,17,14.80
2016,04,01,14,18,14.80
2016,04,01,14,19,14.80
2016,04,01,14,20,14.80
2016,04,01,14,21,14.70
2016,04,01,14,22,14.70
2016,04,01,14,23,14.80
2016,04,01,14,24,14.70
2016,04,01,14,25,14.80
2016,04,01,14,26,14.80
2016,04,01,14,27,14.70
2016,04,01,14,28,14.80
2016,04,01,14,29,14.70
2016,04,01,14,30,14.60
2016,04,01,14,31,14.50
2016,04,01,14,32,14.50
2016,04,01,14,33,14.60
2016,04,01,14,34,14.60
2016,04,01,14,35,14.80
2016,04,01,14,36,14.80
2016,04,01,14,37,14.80
2016,04,01,14,38,14.80
2016,04,01,14,39,14.80
2016,04,01,14,40,14.70
2016,04,01,14,41,14.60
2016,04,01,14,42,14.60
2016,04,01,14,43,14.50
2016,04,01,14,44,14.50
2016,04,01,14,45,14.50
2016,04,01,14,46,14.60
2016,04,01,14,47,14.80
2016,04,01,14,48,14.80
2016,04,01,14,49,14.70
2016,04,01,14,50,14.60
2016,04,01,14,51,14.70
2016,04,01,14,52,14.60
2016,04,01,14,53,14.50
2016,04,01,14,54,14.50
2016,04,01,14,55,14.60
2016,04,01,14,56,14.60
2016,04,01,14,57,14.60
2016,04,01,14,58,14.60
2016,04,01,14,59,14.60
2016,04,01,15,00,14.50
2016,04,01,15,01,14.50
2016,04,01,15,02,14.40
2016,04,01,15,03,14.20
2016,04,01,15,04,14.10
2016,04,01,15,05,14.10
2016,04,01,15,06,14.00
2016,04,01,15,07,13.90
2016,04,01,15,08,13.90
2016,04,01,15,09,13.80
2016,04,01,15,10,13.80
2016,04,01,15,11,13.70
2016,04,01,15,12,13.70
2016,04,01,15,13,13.50
2016,04,01,15,14,13.50
2016,04,01,15,15,13.40
2016,04,01,15,16,13.30
2016,04,01,15,17,13.30
2016,04,01,15,18,13.20
2016,04,01,15,19,13.20
2016,04,01,15,20,13.10
2016,04,01,15,21,13.10
2016,04,01,15,22,13.00
2016,04,01,15,23,13.00
2016,04,01,15,24,13.10
2016,04,01,15,25,13.00
2016,04,01,15,26,12.90
2016,04,01,15,27,13.00
2016,04,01,15,28,13.10
2016,04,01,15,29,13.20
2016,04,01,15,30,13.20
2016,04,01,15,31,13.20
2016,04,01,15,32,13.20
2016,04,01,15,33,13.10
2016,04,01,15,34,13.00
2016,04,01,15,35,12.90
2016,04,01,15,36,12.80
2016,04,01,15,37,12.80
2016,04,01,15,38,12.80
2016,04,01,15,39,12.70
2016,04,01,15,40,12.70
2016,04,01,15,41,12.70
2016,04,01,15,42,12.70
2016,04,01,15,43,12.80
2016,04,01,15,44,12.90
2016,04,01,15,45,12.90
2016,04,01,15,46,13.00
2016,04,01,15,47,13.10
2016,04,01,15,48,13.20
2016,04,01,15,49,13.30
2016,04,01,15,50,13.30
2016,04,01,15,51,13.30
2016,04,01,15,52,13.30
2016,04,01,15,53,13.30
2016,04,01,15,54,13.30
2016,04,01,15,55,13.30
2016,04,01,15,56,13.30
2016,04,01,15,57,13.30
2016,04,01,15,58,13.30
2016,04,01,15,59,13.30
2016,04,01,16,00,13.30
2016,04,01,16,01,13.20
2016,04,01,16,02,13.20
2016,04,01,16,03,13.20
2016,04,01,16,04,13.20
2016,04,01,16,05,13.20
2016,04,01,16,06,13.20
2016,04,01,16,07,13.30
2016,04,01,16,08,13.30
2016,04,01,16,09,13.40
2016,04,01,16,10,13.40
2016,04,01,16,11,13.40
2016,04,01,16,12,13.30
2016,04,01,16,13,13.20
2016,04,01,16,14,13.20
2016,04,01,16,15,13.20
2016,04,01,16,16,13.10
2016,04,01,16,17,13.10
2016,04,01,16,18,13.10
2016,04,01,16,19,13.00
2016,04,01,16,20,12.90
2016,04,01,16,21,12.90
2016,04,01,16,22,13.00
2016,04,01,16,23,13.00
2016,04,01,16,24,13.10
2016,04,01,16,25,13.10
2016,04,01,16,26,13.10
2016,04,01,16,27,13.00
2016,04,01,16,28,12.90
2016,04,01,16,29,12.80
2016,04,01,16,30,12.90
2016,04,01,16,31,12.90
2016,04,01,16,32,12.80
2016,04,01,16,33,12.80
2016,04,01,16,34,12.80
2016,04,01,16,35,12.80
2016,04,01,16,36,12.80
2016,04,01,16,37,12.80
2016,04,01,16,38,12.80
2016,04,01,16,39,12.80
2016,04,01,16,40,12.80
2016,04,01,16,41,12.80
2016,04,01,16,42,12.90
2016,04,01,16,43,13.00
2016,04,01,16,44,13.00
2016,04,01,16,45,13.00
2016,04,01,16,46,13.00
2016,04,01,16,47,13.00
2016,04,01,16,48,13.00
2016,04,01,16,49,13.00
2016,04,01,16,50,12.90
2016,04,01,16,51,12.90
2016,04,01,16,52,12.90
2016,04,01,16,53,13.00
2016,04,01,16,54,13.00
2016,04,01,16,55,13.10
2016,04,01,16,56,13.20
2016,04,01,16,57,13.30
2016,04,01,16,58,13.40
2016,04,01,16,59,13.40
2016,04,01,17,00,13.40
2016,04,01,17,01,13.40
2016,04,01,17,02,13.40
2016,04,01,17,03,13.50
2016,04,01,17,04,13.50
2016,04,01,17,05,13.40
2016,04,01,17,06,13.40
2016,04,01,17,07,13.50
2016,04,01,17,08,13.60
2016,04,01,17,09,13.70
2016,04,01,17,10,13.80
2016,04,01,17,11,13.90
2016,04,01,17,12,14.00
2016,04,01,17,13,14.10
2016,04,01,17,14,14.10
2016,04,01,17,15,14.20
2016,04,01,17,16,14.30
2016,04,01,17,17,14.40
2016,04,01,17,18,14.50
2016,04,01,17,19,14.50
2016,04,01,17,20,14.60
2016,04,01,17,21,14.70
2016,04,01,17,22,14.60
2016,04,01,17,23,14.60
2016,04,01,17,24,14.60
2016,04,01,17,25,14.70
2016,04,01,17,26,14.70
2016,04,01,17,27,14.70
2016,04,01,17,28,14.70
2016,04,01,17,29,14.60
2016,04,01,17,30,14.60
2016,04,01,17,31,14.70
2016,04,01,17,32,14.70
2016,04,01,17,33,14.70
2016,04,01,17,34,14.70
2016,04,01,17,35,14.70
2016,04,01,17,36,14.70
2016,04,01,17,37,14.70
2016,04,01,17,38,14.70
2016,04,01,17,39,14.60